Time,TemperatureF,DewpointF,PressureIn,WindDirection,WindDirectionDegrees,WindSpeedMPH,WindSpeedGustMPH,Humidity,HourlyPrecipIn,Conditions,Clouds,dailyrainin,SolarRadiationWatts/m^2,SoftwareType,DateUTC
2013-06-13 00:22:00,69.0,68.0,-100.00,SSW,192,3.0,5.0,95,0.00,,,0.00,0.000000,,2013-06-13 04:22:00,
2013-06-13 00:32:00,69.0,68.0,-100.00,SSW,192,3.0,5.0,95,0.00,,,0.00,0.000000,,2013-06-13 04:32:00,
2013-06-13 00:43:00,69.0,68.0,-100.00,SSW,192,3.0,5.0,95,0.00,,,0.00,0.000000,,2013-06-13 04:43:00,
2013-06-13 00:53:00,69.0,68.0,-100.00,SSW,192,3.0,5.0,95,0.00,,,0.00,0.000000,,2013-06-13 04:53:00,
2013-06-13 01:24:00,67.0,66.0,-100.00,SSW,202,4.0,5.0,96,0.00,,,0.00,0.000000,,2013-06-13 05:24:00,
2013-06-13 01:33:00,67.0,66.0,-100.00,SSW,202,4.0,5.0,96,0.00,,,0.00,0.000000,,2013-06-13 05:33:00,
2013-06-13 01:43:00,67.0,66.0,-100.00,SSW,202,4.0,5.0,96,0.00,,,0.00,0.000000,,2013-06-13 05:43:00,
2013-06-13 01:53:00,67.0,66.0,-100.00,SSW,202,4.0,5.0,96,0.00,,,0.00,0.000000,,2013-06-13 05:53:00,
2013-06-13 02:22:00,66.0,65.0,-100.00,SSW,206,3.0,5.0,96,0.00,,,0.00,0.000000,,2013-06-13 06:22:00,
2013-06-13 02:33:00,66.0,65.0,-100.00,SSW,206,3.0,5.0,96,0.00,,,0.00,0.000000,,2013-06-13 06:33:00,
2013-06-13 02:44:00,66.0,65.0,-100.00,SSW,206,3.0,5.0,96,0.00,,,0.00,0.000000,,2013-06-13 06:44:00,
2013-06-13 02:52:00,66.0,65.0,-100.00,SSW,206,3.0,5.0,96,0.00,,,0.00,0.000000,,2013-06-13 06:52:00,
2013-06-13 03:22:00,65.0,64.0,-100.00,South,182,3.0,5.0,96,0.00,,,0.00,0.000000,,2013-06-13 07:22:00,
2013-06-13 03:33:00,65.0,64.0,-100.00,South,182,3.0,5.0,96,0.00,,,0.00,0.000000,,2013-06-13 07:33:00,
2013-06-13 03:42:00,65.0,64.0,-100.00,South,182,3.0,5.0,96,0.00,,,0.00,0.000000,,2013-06-13 07:42:00,
2013-06-13 03:52:00,65.0,64.0,-100.00,South,182,3.0,5.0,96,0.00,,,0.00,0.000000,,2013-06-13 07:52:00,
2013-06-13 04:22:00,72.0,66.0,-100.00,SSE,164,2.0,6.0,81,0.00,,,0.00,0.000000,,2013-06-13 08:22:00,
2013-06-13 04:32:00,72.0,66.0,-100.00,SSE,164,2.0,6.0,81,0.00,,,0.00,0.000000,,2013-06-13 08:32:00,
2013-06-13 04:43:00,72.0,66.0,-100.00,SSE,164,2.0,6.0,81,0.00,,,0.00,0.000000,,2013-06-13 08:43:00,
2013-06-13 04:52:00,72.0,66.0,-100.00,SSE,164,2.0,6.0,81,0.00,,,0.00,0.000000,,2013-06-13 08:52:00,
2013-06-13 05:22:00,73.0,65.0,-100.00,South,176,4.0,11.0,76,0.00,,,0.00,0.000000,,2013-06-13 09:22:00,
2013-06-13 05:32:00,73.0,65.0,-100.00,South,176,4.0,11.0,76,0.00,,,0.00,0.000000,,2013-06-13 09:32:00,
2013-06-13 05:42:00,73.0,65.0,-100.00,South,176,4.0,11.0,76,0.00,,,0.00,0.000000,,2013-06-13 09:42:00,
2013-06-13 05:52:00,73.0,65.0,-100.00,South,176,4.0,11.0,76,0.00,,,0.00,0.000000,,2013-06-13 09:52:00,
2013-06-13 06:22:00,73.0,66.0,-100.00,South,190,4.0,10.0,78,-99.99,,,0.00,0.000000,,2013-06-13 10:22:00,
2013-06-13 06:33:00,73.0,66.0,-100.00,South,190,4.0,10.0,78,-99.99,,,0.00,0.000000,,2013-06-13 10:33:00,
2013-06-13 06:43:00,73.0,66.0,-100.00,South,190,4.0,10.0,78,-99.99,,,0.00,0.000000,,2013-06-13 10:43:00,
2013-06-13 06:53:00,73.0,66.0,-100.00,South,190,4.0,10.0,78,-99.99,,,0.00,0.000000,,2013-06-13 10:53:00,
2013-06-13 07:24:00,73.0,66.0,-100.00,South,174,4.0,11.0,79,0.00,,,0.00,10.000000,,2013-06-13 11:24:00,
2013-06-13 07:32:00,73.0,66.0,-100.00,South,174,4.0,11.0,79,0.00,,,0.00,10.000000,,2013-06-13 11:32:00,
2013-06-13 07:42:00,73.0,66.0,-100.00,South,174,4.0,11.0,79,0.00,,,0.00,10.000000,,2013-06-13 11:42:00,
2013-06-13 07:52:00,73.0,66.0,-100.00,South,174,4.0,11.0,79,0.00,,,0.00,10.000000,,2013-06-13 11:52:00,
2013-06-13 08:22:00,74.0,67.0,-100.00,South,186,4.0,10.0,78,0.00,,,0.00,71.000000,,2013-06-13 12:22:00,
2013-06-13 08:35:00,74.0,67.0,-100.00,South,186,4.0,10.0,78,0.00,,,0.00,71.000000,,2013-06-13 12:35:00,
2013-06-13 08:43:00,74.0,67.0,-100.00,South,186,4.0,10.0,78,0.00,,,0.00,71.000000,,2013-06-13 12:43:00,
2013-06-13 08:52:00,74.0,67.0,-100.00,South,186,4.0,10.0,78,0.00,,,0.00,71.000000,,2013-06-13 12:52:00,
2013-06-13 09:22:00,76.0,68.0,-100.00,SSE,167,4.0,11.0,76,0.00,,,0.00,188.000000,,2013-06-13 13:22:00,
2013-06-13 09:33:00,76.0,68.0,-100.00,SSE,167,4.0,11.0,76,0.00,,,0.00,188.000000,,2013-06-13 13:33:00,
2013-06-13 09:43:00,76.0,68.0,-100.00,SSE,167,4.0,11.0,76,0.00,,,0.00,188.000000,,2013-06-13 13:43:00,
2013-06-13 09:53:00,76.0,68.0,-100.00,SSE,167,4.0,11.0,76,0.00,,,0.00,188.000000,,2013-06-13 13:53:00,
2013-06-13 10:33:00,79.0,68.0,-100.00,SSW,192,4.0,13.0,69,0.00,,,0.00,494.000000,,2013-06-13 14:33:00,
2013-06-13 10:43:00,79.0,68.0,-100.00,SSW,192,4.0,13.0,69,0.00,,,0.00,494.000000,,2013-06-13 14:43:00,
2013-06-13 10:53:00,79.0,68.0,-100.00,SSW,192,4.0,13.0,69,0.00,,,0.00,494.000000,,2013-06-13 14:53:00,
2013-06-13 11:22:00,82.0,69.0,-100.00,WSW,241,4.0,11.0,65,0.00,,,0.00,755.000000,,2013-06-13 15:22:00,
2013-06-13 11:33:00,82.0,69.0,-100.00,WSW,241,4.0,11.0,65,0.00,,,0.00,755.000000,,2013-06-13 15:33:00,
2013-06-13 11:43:00,82.0,69.0,-100.00,WSW,241,4.0,11.0,65,0.00,,,0.00,755.000000,,2013-06-13 15:43:00,
2013-06-13 11:53:00,82.0,69.0,-100.00,WSW,241,4.0,11.0,65,0.00,,,0.00,755.000000,,2013-06-13 15:53:00,
2013-06-13 12:22:00,84.0,70.0,-100.00,South,185,4.0,14.0,62,0.00,,,0.00,961.000000,,2013-06-13 16:22:00,
2013-06-13 12:33:00,84.0,70.0,-100.00,South,185,4.0,14.0,62,0.00,,,0.00,961.000000,,2013-06-13 16:33:00,
2013-06-13 12:43:00,84.0,70.0,-100.00,South,185,4.0,14.0,62,0.00,,,0.00,961.000000,,2013-06-13 16:43:00,
2013-06-13 12:53:00,84.0,70.0,-100.00,South,185,4.0,14.0,62,0.00,,,0.00,961.000000,,2013-06-13 16:53:00,
2013-06-13 13:33:00,82.0,71.0,-100.00,NNE,13,3.0,14.0,69,0.00,,,0.00,749.000000,,2013-06-13 17:33:00,
2013-06-13 13:43:00,82.0,71.0,-100.00,NNE,13,3.0,14.0,69,0.00,,,0.00,749.000000,,2013-06-13 17:43:00,
2013-06-13 13:53:00,82.0,71.0,-100.00,NNE,13,3.0,14.0,69,0.00,,,0.00,749.000000,,2013-06-13 17:53:00,
2013-06-13 14:22:00,81.0,69.0,-100.00,NNE,18,4.0,18.0,68,0.00,,,0.00,608.000000,,2013-06-13 18:22:00,
2013-06-13 14:33:00,81.0,69.0,-100.00,NNE,18,4.0,18.0,68,0.00,,,0.00,608.000000,,2013-06-13 18:33:00,
2013-06-13 14:43:00,81.0,69.0,-100.00,NNE,18,4.0,18.0,68,0.00,,,0.00,608.000000,,2013-06-13 18:43:00,
2013-06-13 14:52:00,81.0,69.0,-100.00,NNE,18,4.0,18.0,68,0.00,,,0.00,608.000000,,2013-06-13 18:52:00,
2013-06-13 15:33:00,71.0,69.0,-100.00,South,184,5.0,13.0,94,0.33,,,0.33,135.000000,,2013-06-13 19:33:00,
2013-06-13 15:43:00,71.0,69.0,-100.00,South,184,5.0,13.0,94,0.33,,,0.33,135.000000,,2013-06-13 19:43:00,
2013-06-13 15:53:00,71.0,69.0,-100.00,South,184,5.0,13.0,94,0.33,,,0.33,135.000000,,2013-06-13 19:53:00,
2013-06-13 16:22:00,72.0,69.0,-100.00,South,186,6.0,12.0,90,0.00,,,0.33,268.000000,,2013-06-13 20:22:00,
2013-06-13 16:33:00,72.0,69.0,-100.00,South,186,6.0,12.0,90,0.00,,,0.33,268.000000,,2013-06-13 20:33:00,
2013-06-13 16:44:00,72.0,69.0,-100.00,South,186,6.0,12.0,90,0.00,,,0.33,268.000000,,2013-06-13 20:44:00,
2013-06-13 16:53:00,72.0,69.0,-100.00,South,186,6.0,12.0,90,0.00,,,0.33,268.000000,,2013-06-13 20:53:00,
2013-06-13 17:22:00,67.0,66.0,-100.00,NNE,15,2.0,10.0,97,0.10,,,0.43,7.000000,,2013-06-13 21:22:00,
2013-06-13 17:34:00,67.0,66.0,-100.00,NNE,15,2.0,10.0,97,0.10,,,0.43,7.000000,,2013-06-13 21:34:00,
2013-06-13 17:43:00,67.0,66.0,-100.00,NNE,15,2.0,10.0,97,0.10,,,0.43,7.000000,,2013-06-13 21:43:00,
2013-06-13 17:52:00,67.0,66.0,-100.00,NNE,15,2.0,10.0,97,0.10,,,0.43,7.000000,,2013-06-13 21:52:00,
2013-06-13 18:22:00,70.0,69.0,-100.00,NNE,21,0.0,5.0,96,0.00,,,0.43,152.000000,,2013-06-13 22:22:00,
2013-06-13 18:33:00,70.0,69.0,-100.00,NNE,21,0.0,5.0,96,0.00,,,0.43,152.000000,,2013-06-13 22:33:00,
2013-06-13 18:43:00,70.0,69.0,-100.00,NNE,21,0.0,5.0,96,0.00,,,0.43,152.000000,,2013-06-13 22:43:00,
2013-06-13 18:52:00,70.0,69.0,-100.00,NNE,21,0.0,5.0,96,0.00,,,0.43,152.000000,,2013-06-13 22:52:00,
2013-06-13 19:22:00,67.0,66.0,-100.00,SSE,154,2.0,9.0,96,0.00,,,0.43,127.000000,,2013-06-13 23:22:00,
2013-06-13 19:32:00,67.0,66.0,-100.00,SSE,154,2.0,9.0,96,0.00,,,0.43,127.000000,,2013-06-13 23:32:00,
2013-06-13 19:43:00,67.0,66.0,-100.00,SSE,154,2.0,9.0,96,0.00,,,0.43,127.000000,,2013-06-13 23:43:00,
2013-06-13 19:52:00,67.0,66.0,-100.00,SSE,154,2.0,9.0,96,0.00,,,0.43,127.000000,,2013-06-13 23:52:00,
2013-06-13 20:22:00,67.0,64.0,-100.00,North,10,1.0,7.0,91,0.00,,,0.43,90.000000,,2013-06-14 00:22:00,
2013-06-13 20:34:00,67.0,64.0,-100.00,North,10,1.0,7.0,91,0.00,,,0.43,90.000000,,2013-06-14 00:34:00,
2013-06-13 20:43:00,67.0,64.0,-100.00,North,10,1.0,7.0,91,0.00,,,0.43,90.000000,,2013-06-14 00:43:00,
2013-06-13 20:53:00,67.0,64.0,-100.00,North,10,1.0,7.0,91,0.00,,,0.43,90.000000,,2013-06-14 00:53:00,
2013-06-13 21:22:00,66.0,64.0,-100.00,ENE,68,2.0,5.0,92,0.00,,,0.43,18.000000,,2013-06-14 01:22:00,
2013-06-13 21:33:00,66.0,64.0,-100.00,ENE,68,2.0,5.0,92,0.00,,,0.43,18.000000,,2013-06-14 01:33:00,
2013-06-13 21:43:00,66.0,64.0,-100.00,ENE,68,2.0,5.0,92,0.00,,,0.43,18.000000,,2013-06-14 01:43:00,
2013-06-13 21:52:00,66.0,64.0,-100.00,ENE,68,2.0,5.0,92,0.00,,,0.43,18.000000,,2013-06-14 01:52:00,
2013-06-13 22:22:00,67.0,63.0,-100.00,North,5,2.0,5.0,87,0.00,,,0.43,0.000000,,2013-06-14 02:22:00,
2013-06-13 22:32:00,67.0,63.0,-100.00,North,5,2.0,5.0,87,0.00,,,0.43,0.000000,,2013-06-14 02:32:00,
2013-06-13 22:43:00,67.0,63.0,-100.00,North,5,2.0,5.0,87,0.00,,,0.43,0.000000,,2013-06-14 02:43:00,
2013-06-13 22:52:00,67.0,63.0,-100.00,North,5,2.0,5.0,87,0.00,,,0.43,0.000000,,2013-06-14 02:52:00,
2013-06-13 23:22:00,67.0,64.0,-100.00,NNE,13,4.0,7.0,89,0.00,,,0.43,0.000000,,2013-06-14 03:22:00,
2013-06-13 23:34:00,67.0,64.0,-100.00,NNE,13,4.0,7.0,89,0.00,,,0.43,0.000000,,2013-06-14 03:34:00,
2013-06-13 23:43:00,67.0,64.0,-100.00,NNE,13,4.0,7.0,89,0.00,,,0.43,0.000000,,2013-06-14 03:43:00,
2013-06-13 23:53:00,67.0,64.0,-100.00,NNE,13,4.0,7.0,89,0.00,,,0.43,0.000000,,2013-06-14 03:53:00,